Regional Weather Roundup
Issued by NWS Sioux Falls, SD

Home | Current Version | Previous Version | Graphics & Text | Print | Product List | Glossary Off
Versions: 1 2 3 4 5 6 7 8 9 10 11 12 13 14 15 16 17 18 19 20 21 22 23 24 25 26 27 28 29 30 31 32 33 34 35 36 37 38 39 40 41 42 43 44 45 46 47 48 49 50

000
ASUS43 KFSD 011502
RWRFSD

WEATHER ROUNDUP FOR SE SOUTH DAKOTA/SW MINNESOTA/NW IOWA
NATIONAL WEATHER SERVICE SIOUX FALLS SD
1000 AM CDT TUE SEP 01 2015

NOTE: "FAIR" INDICATES FEW OR NO CLOUDS BELOW 12,000 FEET WITH NO
SIGNIFICANT WEATHER AND OR OBSTRUCTIONS TO VISIBILITY.


SDZ038>040-050-052>070-011600-
SOUTHEAST SOUTH DAKOTA

CITY           SKY/WX    TMP DP  RH WIND       PRES   REMARKS
BROOKINGS      CLOUDY    72  66  83 SE12      29.92F
CHAMBERLAIN    PTSUNNY   69  67  92 CALM      29.90F
HURON          CLOUDY    73  70  90 S9        29.87R FOG
MADISON        FAIR      68  68 100 E10       29.89F
MITCHELL       LGT RAIN  69  67  93 SW12G24   29.91R FOG
SIOUX FALLS    CLOUDY    73  68  84 SE7       29.89F
WINNER         FAIR      72  67  84 NE3       29.90F
YANKTON        PTSUNNY   72  68  88 SE3       29.87R
$$

MNZ071-072-080-081-089-090-097-098-011600-
SOUTHWEST MINNESOTA

CITY           SKY/WX    TMP DP  RH WIND       PRES   REMARKS
FAIRMONT       MOSUNNY   73  66  78 S8        29.92F
JACKSON        SUNNY     73  70  88 S6        29.93F
LUVERNE        PTSUNNY   72  68  88 S5        29.91S
MARSHALL       CLOUDY    72  64  78 CALM      29.92R
MONTEVIDEO     CLOUDY    77  72  83 SE6       29.91S
PIPESTONE      CLOUDY    72  66  83 S3        29.92F
REDWOOD FALLS  CLOUDY    72  67  84 S6        29.90S
TRACY          CLOUDY    73  69  85 SE7       29.90F
WINDOM         MOSUNNY   79  68  69 S6        29.92S
WORTHINGTON    MOSUNNY   73  66  78 S9        29.92S
$$

IAZ001>003-012>014-020>022-031-032-NEZ013-014-SDZ071-011600-
NORTHWEST IOWA

CITY           SKY/WX    TMP DP  RH WIND       PRES   REMARKS
DENISON        MOSUNNY   75  70  83 SW10      29.93S
ESTHERVILLE    SUNNY     72  68  87 S7        29.93S
SIOUX CITY     MOSUNNY   76  67  73 S9        29.90R
SPENCER        SUNNY     76  68  76 S7        29.93F
$$

ABBREVIATIONS USED IN REMARKS
   TC - TEMPERATURE IN CELSIUS
  WCI - WIND CHILL INDEX
   HX - HEAT INDEX
  VSB - VISIBILITY



USA.gov is the U.S. government's official web portal to all federal, state and local government web resources and services.